Location: Observatory
(52.1446°N, 0.4624°W)
Time: 06:23:14
(UTC+00:00)

ISS - Pass Details

Date: 10 December 2017
Orbit: 403 x 407 km, 51.6° (Epoch: 12 December)

Event Time Altitude Azimuth Distance (km) Brightness Sun altitude
Rises 17:59:51 0° 280° (W) 2,333 1.2 -18.7°
Reaches altitude 10° 18:01:57 10° 276° (W) 1,470 0.1 -19.0°
Maximum altitude 18:05:11 55° 199° (SSW) 497 -3.3 -19.5°
Enters shadow 18:05:39 49° 162° (SSE) 536 -3.3 -19.6°
